Lid_Strength_Index
12 14 16 12 12 10 13 13 14 13 12 12 12 11 9 11 10 9 8 7 5 4 3 2 2 1 1 1 1 1 1 0 0 0 1 1 1 0 -0 -1 -1 -1 -1 -1
15 16 13 11 10 13 13 15 14 14 13 13 13 12 10 10 10 9 7 6 6 5 3 3 2 2 2 1 1 1 1 0 0 0 0 0 0 -0 -0 -1 -1 -1 -1 -1
16 13 13 14 14 15 14 14 14 14 14 14 14 14 12 11 10 10 10 8 7 6 6 4 3 2 2 2 1 1 1 1 0 -0 0 0 -0 0 0 0 -0 -1 -1 -1
15 14 14 14 14 13 16 14 14 15 14 16 14 16 13 11 11 11 9 7 7 6 6 5 5 3 2 2 1 1 1 0 0 -0 1 1 2 2 1 1 -0 -0 -1 -1
15 15 15 15 14 13 14 13 13 15 15 15 15 16 13 14 13 11 9 7 7 6 6 6 6 5 4 4 1 1 1 1 0 0 0 1 1 1 0 0 0 0 -1 -1
15 13 13 13 15 13 14 14 15 15 15 18 14 15 14 14 13 10 9 8 8 6 7 8 8 7 7 6 6 4 2 1 0 0 0 1 1 1 1 1 1 1 0 -0
16 15 14 14 15 14 14 14 18 18 18 19 18 18 14 12 11 10 10 9 10 9 8 9 8 8 8 7 6 5 3 2 1 1 1 1 1 1 1 1 1 1 1 1
18 19 16 14 13 15 15 14 17 20 20 18 19 18 14 11 12 11 11 11 10 9 9 9 9 8 7 6 5 5 2 2 2 1 2 1 1 1 1 1 1 1 1 0
16 17 15 14 14 13 15 16 14 19 22 18 16 15 13 11 12 12 12 12 11 9 9 8 7 6 6 6 5 5 5 5 4 3 3 4 5 5 5 5 4 0 0 0
14 18 15 15 13 14 14 14 18 17 20 21 19 18 15 13 13 13 12 12 11 10 10 9 8 7 6 5 5 5 4 4 4 3 3 3 3 3 2 2 4 3 0 1
13 15 17 15 16 15 15 16 16 15 16 18 20 17 13 14 13 13 12 11 10 9 9 8 8 8 7 6 5 5 4 4 4 4 3 3 3 3 2 2 2 2 2 2
12 15 17 16 14 14 13 14 14 17 19 18 18 16 15 13 12 12 12 11 10 8 8 8 8 7 7 6 6 5 5 5 5 4 4 4 3 3 4 4 4 4 4 5
13 15 18 18 15 15 15 15 13 15 15 19 17 16 14 13 12 12 12 12 11 9 9 8 8 8 7 7 7 6 6 6 6 5 4 5 5 5 5 6 6 7 7 8
11 15 15 18 16 15 17 16 14 15 16 17 16 15 14 12 12 12 12 11 10 9 9 8 8 8 7 7 7 7 7 7 7 6 6 6 6 6 6 7 7 8 8 9
13 16 16 17 15 14 15 16 16 16 14 16 14 15 13 11 11 11 10 10 10 10 9 9 8 8 8 8 8 8 8 8 8 7 8 9 9 9 9 10 10 10 11 11
12 15 16 17 16 15 16 14 14 14 13 14 15 15 11 11 11 10 10 10 10 9 9 9 9 9 9 9 9 9 9 9 9 9 9 11 11 11 11 11 12 12 12 12
13 15 14 18 17 16 17 16 15 14 13 13 15 13 12 13 11 10 10 9 9 8 8 9 8 8 9 9 9 9 9 10 10 10 10 11 11 12 12 13 13 13 13 12
14 14 15 19 17 20 15 12 13 13 13 12 13 12 11 10 9 8 8 9 9 9 9 9 8 8 8 9 9 9 10 10 10 11 12 13 13 14 14 14 14 13 13 13
11 14 18 17 17 16 16 15 14 15 15 13 13 11 10 11 11 10 11 9 8 9 8 8 8 9 9 9 9 10 11 11 12 13 13 14 14 15 15 15 15 14 14 13
13 11 13 19 17 20 16 15 12 11 15 11 11 11 12 11 12 10 10 9 9 9 10 11 10 11 10 11 11 12 13 13 13 14 14 15 15 15 15 15 15 15 13 14
15 14 15 17 15 15 14 14 11 15 15 11 11 10 11 11 9 8 10 11 10 10 11 11 12 12 12 13 13 13 14 14 13 15 16 16 16 16 15 15 15 15 14 14
15 15 16 17 17 19 15 15 14 11 12 11 11 11 10 9 11 11 10 12 12 13 12 12 13 14 15 14 13 14 14 14 16 16 17 17 16 16 16 16 16 15 15 16
14 12 14 13 14 13 13 12 11 11 10 11 10 11 9 10 11 12 12 12 13 13 14 15 14 16 16 16 14 14 15 17 17 17 17 17 17 17 17 17 17 16 16 15
13 13 12 12 13 12 12 11 10 10 10 10 10 10 10 11 12 13 13 14 14 15 16 16 16 16 17 17 17 16 17 18 18 18 19 19 18 18 18 16 16 15 16 16
12 13 14 14 14 12 12 11 10 11 12 12 12 12 11 12 13 13 14 14 15 15 16 16 16 16 17 18 18 18 18 18 18 18 19 18 18 18 17 17 16 16 15 15
13 14 13 13 12 11 10 10 11 11 12 12 12 13 13 12 13 13 14 14 15 16 17 17 17 17 18 18 18 19 19 19 18 18 19 18 18 17 17 17 17 16 16 16